Find Starlink 35211

NORAD ID: 65757 Int'l Des: 2025-216 Owner: SPXS Country: US Constellation: starlink operational
LEOCIRCULAR

リアルタイム位置

3D地球を読み込み中...

Starlink 35211について

説明を読み込み中...

次回通過

Passes for default location (London). Set your location on the main map for personalized predictions.

高度履歴

Loading altitude history...

軌道要素

1 65757U 25216Z 26104.42078035 -.00001627 00000-0 -42807-4 0 9991
2 65757 53.1607 166.9553 0001169 87.8748 272.2386 15.30203079 32014
Epoch: Apr 14, 2026 • Age: 16 hours

現在のステータス

高度 485.3 km
速度 7.62 km/s
衛星直下点 -31.03°S, 89.91°W
打ち上げ日 Sep 25, 2025
運用期間 0.5 years
タイプ internet

技術仕様

分類 Payload
質量 575.00 kg
乾燥質量 530.00 kg
総質量 575.00 kg
長さ 0.30 m
直径 4.10 m
スパン 29.00 m
形状 Box + pan
製造者 SPXS
バスタイプ Starlink V2MO
フェーズステータス In Orbit
所有者/国 SPXS/US

Most Searched